Probability
2 1 0 0 0 0 0 0 0 0 0 0 0 0 0 0 0 0 0 0 0 0 0 0 0 0 0 0 0 0 0 0 0 0 0 0 0 0 0 0 0 0 0 0 0 0 0 0 0
2 1 0 0 0 0 0 0 0 0 0 0 0 0 0 0 0 0 0 0 0 0 0 0 0 0 0 0 0 0 0 0 0 0 0 0 0 0 0 0 0 0 0 0 0 0 0 0 0
1 1 0 0 0 0 0 0 0 0 0 0 0 0 0 0 0 0 0 0 0 0 0 1 1 1 0 0 0 0 0 0 0 0 0 0 0 0 0 0 0 0 0 0 0 0 0 0 0
1 1 0 0 0 0 0 0 0 0 0 0 0 0 0 0 0 0 0 0 0 0 0 1 2 1 0 0 0 0 0 0 0 0 0 0 0 0 0 0 0 0 0 0 0 0 0 0 0
2 1 0 0 0 0 0 0 0 0 0 0 0 0 0 0 0 0 0 0 0 0 1 2 2 1 1 0 0 0 0 0 0 0 0 0 0 0 0 0 0 0 0 0 0 0 0 0 0
2 1 0 0 0 0 0 0 0 0 0 0 0 0 0 0 0 0 0 0 0 0 1 3 3 3 2 1 0 0 0 0 0 0 0 0 0 0 0 0 0 0 0 0 0 0 0 0 0
1 0 0 0 0 0 0 0 0 0 0 0 0 0 0 0 0 0 0 0 0 1 2 3 3 3 3 2 1 0 0 0 0 0 0 0 0 0 0 0 0 0 0 0 0 0 0 0 0
0 0 0 0 0 0 0 0 0 0 0 0 0 0 0 0 0 0 0 0 0 2 3 3 3 2 3 2 1 0 0 0 0 0 0 0 0 0 0 0 0 0 0 0 0 0 0 0 0
0 0 0 0 0 0 0 0 0 0 0 0 0 0 0 0 0 0 0 0 0 1 3 3 3 3 3 2 1 0 0 0 0 0 0 0 0 0 0 0 0 0 0 0 0 0 0 0 0
0 0 0 0 0 0 0 0 0 0 0 0 0 0 0 0 0 0 0 0 0 1 2 3 3 3 2 1 0 0 0 0 0 0 0 0 0 0 0 0 0 0 0 0 0 0 0 0 0
1 0 0 0 0 0 0 0 0 0 0 0 0 1 1 1 0 0 0 0 0 0 1 1 2 2 1 0 0 0 0 0 0 0 0 0 0 0 0 0 0 0 0 0 0 0 0 0 0
1 0 0 0 0 0 0 0 0 0 0 0 0 1 1 1 0 0 0 0 0 0 0 0 1 1 1 0 0 0 0 0 0 0 0 0 0 0 0 0 0 0 0 0 0 0 0 0 0
1 0 0 0 0 0 0 0 0 0 0 0 0 0 0 0 0 0 0 0 0 0 0 0 0 0 0 0 0 0 0 0 0 0 0 0 0 0 0 0 0 0 0 0 0 0 0 0 0
0 0 0 0 0 0 0 0 0 0 0 0 0 0 0 0 0 0 0 0 0 0 0 0 0 0 0 0 0 0 0 0 0 0 0 0 0 0 0 0 0 0 0 0 0 0 0 0 0
0 0 0 0 0 0 0 0 0 0 0 0 0 0 0 0 0 0 0 0 0 0 0 0 0 0 0 0 0 0 0 0 0 0 0 0 0 0 0 0 0 0 0 0 0 0 0 0 0
0 0 0 0 0 0 0 0 0 0 0 0 0 0 0 0 0 0 0 0 0 0 0 0 0 0 0 0 0 0 0 0 0 0 0 0 0 0 0 0 0 0 0 0 0 0 0 0 0
0 0 0 0 0 0 0 0 0 0 0 0 0 0 0 0 0 0 0 0 0 0 0 0 0 0 0 0 0 0 0 0 0 0 0 0 0 0 0 0 0 0 0 0 0 0 0 0 0
0 0 0 0 0 0 0 0 0 0 0 0 0 0 0 0 0 0 0 0 0 0 0 0 0 0 0 0 0 0 0 0 0 0 0 0 0 0 0 0 0 0 0 0 0 0 0 0 0
0 0 0 0 0 0 0 0 0 0 0 0 0 0 0 0 0 0 0 0 0 0 0 0 0 0 0 0 0 0 0 0 0 0 0 0 0 0 0 0 0 0 0 0 0 0 0 0 0
0 0 0 0 0 0 0 0 0 0 0 0 0 0 0 0 0 0 0 0 0 0 0 0 0 0 0 0 0 0 0 0 0 0 0 0 0 0 0 0 0 0 0 0 0 0 0 0 0
0 0 0 0 0 0 0 0 0 0 0 0 0 0 0 0 0 0 0 0 0 0 0 0 0 0 0 0 0 0 0 0 0 0 0 0 0 0 0 0 0 0 0 0 0 0 0 0 0
0 0 0 0 0 0 0 0 0 0 0 0 0 0 0 0 0 0 0 0 0 0 0 0 0 1 1 1 0 0 0 0 0 0 0 0 0 0 0 0 0 0 0 0 0 0 0 0 0
0 0 0 0 0 0 0 0 0 0 0 0 0 0 0 0 0 0 0 0 0 1 1 1 1 1 2 2 1 0 0 0 0 0 0 0 0 0 0 0 0 0 0 0 0 0 0 0 0
0 0 0 0 0 0 0 0 0 0 0 0 0 0 0 0 0 0 0 0 1 2 2 2 2 3 3 3 2 1 0 0 0 0 0 0 0 0 0 0 0 0 0 0 0 0 0 0 0
0 0 0 0 0 0 0 0 0 0 0 0 0 0 0 0 0 0 0 1 2 3 3 3 3 3 3 3 3 2 0 0 0 0 0 0 0 0 0 0 0 0 0 0 0 0 0 0 0
0 0 0 0 0 0 0 0 0 0 0 0 0 0 0 0 0 0 0 2 3 3 3 3 3 3 3 2 2 1 0 0 0 0 0 0 0 0 0 0 0 0 0 0 0 0 0 0 0
0 0 0 0 0 0 0 0 0 0 0 0 0 0 0 0 0 0 0 1 3 3 3 3 3 3 2 1 1 0 0 0 0 0 0 0 0 0 0 0 0 0 0 0 0 0 0 0 0
0 0 0 0 0 0 0 0 0 0 0 0 0 0 0 0 0 0 0 1 2 3 3 3 3 3 2 0 0 0 0 0 0 0 0 0 0 0 0 0 0 0 0 0 0 0 0 0 0
0 0 0 0 0 0 0 0 0 0 0 0 0 0 0 0 0 0 0 1 2 3 3 3 3 3 1 0 0 0 0 0 0 0 0 0 0 0 0 0 0 0 0 0 0 0 0 0 0
0 0 0 0 0 0 0 0 0 0 0 0 0 0 0 0 0 0 0 0 1 3 3 3 3 2 1 0 0 0 0 0 0 0 0 0 0 0 0 0 0 0 0 0 0 0 0 0 0
Wind_Speed
3 2 2 3 4 2 3 3 3 4 3 5 5 4 5 6 5 6 6 7 9 10 10 10 10 11 11 11 11 11 11 10 9 9 10 8 8 7 6 5 5 5 5 5 5 4 4 5 5
1 2 3 4 4 3 4 4 4 4 5 5 5 5 6 7 7 8 7 8 10 10 10 10 11 11 12 12 12 12 11 10 9 9 9 8 8 7 6 5 5 5 5 5 5 4 4 4 4
2 3 3 3 2 1 5 5 5 6 4 2 4 5 5 6 7 7 9 11 10 10 10 12 11 12 12 12 12 11 11 10 10 10 9 8 7 7 6 5 5 5 5 5 4 4 4 4 4
2 3 3 3 3 4 4 4 5 6 4 3 5 7 6 5 5 9 12 11 11 10 11 12 11 12 12 12 12 11 11 10 10 9 8 7 7 7 6 5 5 5 4 4 4 4 4 4 4
3 3 3 3 3 4 3 3 3 4 4 5 6 8 8 7 10 12 12 11 11 11 11 12 11 12 11 11 11 11 10 10 9 8 8 7 6 6 5 5 5 4 4 4 4 4 3 3 3
2 3 4 4 5 4 4 3 4 5 6 6 7 8 8 8 11 11 11 10 11 11 11 11 12 11 11 10 10 10 9 9 8 8 8 7 6 6 5 5 5 4 4 4 3 3 4 3 3
2 2 2 3 4 4 4 2 3 5 7 6 5 7 9 9 9 10 10 10 9 10 10 9 10 11 11 10 9 9 9 8 8 7 7 7 6 6 5 5 5 4 4 4 3 3 3 3 3
2 2 3 3 4 4 4 3 3 4 6 6 3 6 9 11 10 10 10 9 9 9 8 8 8 7 8 9 9 8 8 7 7 6 6 4 3 4 3 3 6 5 4 4 4 3 3 3 3
3 3 3 2 2 4 5 4 4 3 7 5 4 6 11 14 12 11 10 10 9 8 7 7 7 7 6 7 8 7 7 6 4 5 4 1 2 3 2 9 7 5 5 5 4 3 2 2 2
3 3 1 2 2 3 5 4 4 6 7 7 9 11 14 13 12 12 11 11 10 8 8 6 7 7 6 5 5 4 4 4 3 4 3 3 3 4 4 6 4 4 3 2 3 2 4 6 1
3 1 2 2 2 3 5 5 4 6 6 7 11 14 15 13 12 11 10 9 8 8 7 6 6 6 5 4 3 3 3 2 3 4 3 3 2 2 2 2 2 2 1 2 1 3 1 1 2
2 2 1 2 3 2 3 4 4 4 5 7 10 14 14 13 12 10 10 9 8 7 7 6 5 5 5 4 4 3 2 2 3 3 5 3 2 2 3 2 3 2 2 3 2 2 2 2 2
3 2 3 3 3 3 4 4 4 5 6 8 11 12 12 11 10 9 8 8 8 7 6 6 5 5 5 4 2 3 3 3 4 3 3 4 3 3 3 2 2 3 3 2 2 2 3 2 3
3 3 3 3 4 3 4 4 4 5 6 9 11 12 11 10 10 9 8 8 8 7 6 6 5 4 4 4 3 3 3 3 3 3 3 4 3 3 2 3 3 3 3 3 2 2 2 2 2
4 5 4 3 3 3 4 4 3 4 7 9 10 10 10 10 9 9 8 7 7 6 6 6 5 5 4 4 4 3 2 3 3 3 4 4 4 3 3 3 3 3 3 2 3 3 2 2 1
5 5 4 3 2 3 5 5 4 5 8 8 8 9 9 8 8 8 8 7 7 7 6 7 5 5 5 4 4 3 2 3 3 3 3 4 4 4 3 3 3 3 3 2 2 2 2 2 2
5 6 5 4 1 2 4 5 5 5 6 7 8 9 9 8 8 7 7 7 7 7 7 7 6 6 6 5 4 3 3 3 2 3 3 4 4 4 4 3 3 3 3 3 3 3 3 2 2
7 6 5 4 3 4 4 4 4 5 6 7 7 8 8 9 8 8 8 7 7 7 7 7 7 6 6 4 4 3 3 2 2 3 3 4 4 4 4 3 4 3 3 3 3 3 2 2 2
4 6 5 4 3 3 5 5 4 5 6 7 8 8 8 8 7 7 8 8 8 8 7 7 7 7 5 4 3 2 2 2 2 3 3 3 4 4 4 3 4 4 3 3 3 3 3 2 2
6 6 5 4 3 3 5 5 5 6 7 6 8 9 9 9 8 8 9 9 9 8 7 8 7 7 6 3 2 2 2 1 2 2 2 3 4 4 3 4 3 3 3 3 4 3 3 3 3
6 6 5 4 3 3 4 5 6 6 6 6 7 7 8 9 10 10 9 9 9 8 8 6 7 7 5 5 3 3 3 2 2 2 2 3 3 3 4 4 4 3 3 3 4 4 4 3 3
5 4 5 5 5 4 5 4 6 7 8 8 8 9 9 9 10 10 10 9 9 9 8 8 8 7 6 6 4 4 2 2 2 1 2 2 2 3 3 4 4 4 3 3 3 4 3 3 2
3 5 5 5 4 4 6 5 5 8 10 10 10 10 10 10 11 11 10 10 9 9 8 7 7 6 6 5 4 3 2 2 2 1 2 1 2 2 3 3 3 3 3 4 4 4 4 3 3
6 6 5 5 6 6 6 6 5 8 10 11 11 11 10 11 11 11 10 9 9 8 7 7 7 6 5 5 5 4 3 2 2 2 2 1 2 2 3 2 2 3 3 3 3 3 3 3 3
7 7 5 6 6 4 4 5 3 5 7 9 10 11 11 11 12 12 11 11 10 9 9 8 8 7 6 5 4 4 3 3 2 2 2 1 1 2 2 1 2 3 3 3 3 3 3 3 3
8 8 4 3 3 4 6 6 2 3 4 7 8 9 10 11 12 12 12 11 10 10 9 9 8 7 6 5 4 3 3 2 2 1 1 1 1 2 2 1 2 3 3 2 3 2 3 3 3
7 7 4 4 2 3 5 4 3 4 6 8 10 11 11 12 12 12 12 11 11 10 10 9 9 8 7 5 4 4 3 2 2 2 1 1 1 2 2 2 2 2 2 2 2 2 3 3 3
5 4 5 5 4 4 4 5 5 9 9 10 11 12 11 12 12 12 11 11 11 10 9 9 8 8 7 5 4 3 3 3 2 2 2 1 2 2 2 2 2 2 2 2 2 2 3 2 3
8 7 6 4 4 4 2 2 2 6 9 10 11 11 12 12 13 12 11 11 10 9 9 9 8 7 6 6 5 5 4 3 3 2 3 2 2 3 2 2 3 3 3 2 2 3 3 2 3
8 8 9 6 4 4 4 1 3 4 6 8 10 10 11 12 12 12 12 11 11 10 9 9 8 7 6 6 5 5 4 4 3 4 3 3 3 3 3 3 3 3 3 3 3 3 3 3 3
Wind_Direction
193 210 239 240 230 199 113 95 98 113 93 72 71 75 72 51 33 73 102 125 121 121 119 122 114 114 110 107 106 105 103 102 102 100 96 93 90 88 83 78 80 76 71 70 64 57 54 55 55
221 221 236 243 237 171 117 106 101 80 98 104 87 81 80 72 68 97 121 126 127 119 119 113 114 112 109 108 106 104 102 100 98 96 95 91 86 84 80 71 67 64 60 57 54 50 46 45 46
177 245 258 242 218 107 106 101 100 101 105 110 96 73 66 86 101 108 120 132 125 117 114 110 114 112 109 108 105 103 100 97 96 95 92 88 85 82 76 69 64 59 54 50 46 43 41 36 37
230 226 234 226 136 75 77 103 123 133 116 92 112 96 83 76 101 116 128 131 122 118 113 111 113 110 107 106 105 103 100 97 94 91 88 85 81 75 67 60 57 53 50 49 45 38 37 31 30
242 249 212 175 123 95 91 106 143 134 111 104 110 102 93 86 107 122 131 129 124 119 114 113 110 109 107 105 103 100 97 94 92 88 85 79 74 69 61 53 49 45 41 37 38 33 29 24 24
233 240 213 168 129 120 115 130 147 122 114 114 113 109 96 115 123 125 127 126 121 119 118 115 112 107 105 104 100 96 94 92 87 81 75 69 62 57 52 46 43 43 40 37 35 31 30 22 15
262 240 207 156 146 138 116 134 143 135 125 114 119 114 119 129 125 128 126 122 119 119 119 119 122 121 115 103 98 96 91 86 82 76 70 63 57 51 45 41 39 39 40 37 32 31 27 22 18
289 240 186 174 163 126 119 132 100 115 109 109 127 126 135 137 134 130 126 124 120 120 120 121 117 116 116 113 102 96 89 83 80 76 66 59 89 90 64 59 50 34 35 35 30 30 27 20 26
245 228 189 149 141 111 131 138 108 105 120 110 88 97 124 133 138 137 133 130 124 121 122 120 118 114 109 107 110 115 106 95 115 110 98 257 45 58 87 52 43 35 36 36 31 24 2 290 162
224 219 130 64 51 104 133 131 127 140 130 120 114 114 129 141 146 144 143 139 135 134 131 130 127 124 120 113 114 107 97 92 70 58 56 33 41 35 25 94 66 53 41 89 57 321 246 255 211
199 184 95 94 84 112 133 128 131 141 129 132 137 139 145 151 150 147 144 138 136 135 134 134 132 129 123 119 108 89 83 83 72 53 54 32 33 46 29 43 106 80 326 20 97 243 308 337 22
168 120 110 99 103 127 132 129 126 112 102 120 136 144 152 159 156 153 148 144 142 140 140 138 138 133 128 117 109 107 92 77 64 48 40 38 36 23 35 23 21 8 26 13 350 342 10 353 359
178 130 108 108 121 123 123 122 110 100 111 126 133 147 159 160 156 155 154 152 148 145 146 139 145 138 127 110 111 107 88 67 73 52 34 41 29 30 32 30 21 8 11 11 358 343 22 2 10
142 140 119 118 126 135 134 126 128 113 130 139 145 154 162 163 161 159 162 161 156 153 150 142 150 140 138 133 130 99 88 84 59 52 40 35 34 28 13 27 27 17 9 8 348 13 5 354 18
158 157 146 141 155 159 156 134 132 131 142 146 152 155 161 166 167 172 170 166 158 155 152 140 144 144 141 127 110 95 83 70 61 51 36 39 34 24 25 18 25 17 6 1 359 19 354 7 22
187 190 180 131 167 180 190 156 137 150 152 154 159 158 163 171 178 176 172 167 161 160 149 138 147 146 134 125 118 101 84 71 64 57 39 33 33 32 28 20 19 10 3 5 14 358 4 23 19
195 188 170 148 147 186 191 153 136 150 155 163 166 164 168 171 177 172 169 164 160 156 150 146 147 143 135 128 122 108 90 75 67 59 46 31 31 27 38 27 12 15 14 12 10 23 0 21 20
181 176 168 165 143 173 168 163 155 171 172 174 169 170 175 176 175 169 164 160 157 156 152 147 144 143 138 138 130 115 98 90 74 62 50 31 26 31 34 34 27 23 28 21 27 42 30 20 2
181 177 165 150 150 181 172 178 190 190 187 181 177 181 182 177 166 162 162 161 160 159 155 148 152 149 148 142 140 128 115 107 88 69 59 47 36 34 35 22 33 21 33 24 24 28 45 33 356
188 179 172 147 160 199 174 189 207 197 199 197 191 187 184 175 168 162 164 164 164 159 157 153 153 153 150 138 128 119 108 98 75 73 64 46 41 34 30 29 35 40 37 32 30 24 6 29 4
202 206 189 173 164 193 192 208 207 190 194 199 202 200 190 181 176 169 167 166 165 163 162 160 157 156 154 147 137 136 134 151 135 110 77 47 37 41 34 31 29 29 31 38 22 21 16 15 27
201 197 188 185 207 197 221 214 192 187 192 199 200 199 194 184 177 172 170 169 168 166 166 164 162 160 156 158 158 158 159 129 93 83 87 91 58 49 37 32 31 35 35 39 27 30 14 3 20
181 175 187 196 213 221 217 233 183 186 199 199 198 195 190 183 177 175 174 171 167 163 165 165 163 159 158 160 154 171 150 119 113 111 106 102 84 66 54 34 34 36 37 35 29 23 13 18 12
162 166 178 204 219 223 210 230 195 191 201 195 193 191 185 179 175 172 168 166 160 158 162 164 163 155 157 163 164 164 144 134 127 125 110 119 110 94 78 49 45 39 34 33 28 24 32 21 23
195 191 191 194 205 203 175 231 217 184 197 198 192 185 181 176 171 169 168 168 164 165 166 168 165 160 165 168 163 155 150 154 143 132 122 114 107 99 80 66 50 44 36 34 28 32 29 35 24
199 225 249 225 203 163 186 226 174 163 188 195 189 180 176 174 172 170 170 169 168 169 169 171 168 163 166 171 161 151 146 154 121 122 108 104 74 72 76 75 62 55 45 38 35 21 35 27 34
199 221 269 290 232 220 189 192 184 180 183 184 182 179 179 175 172 170 169 169 169 170 170 172 170 167 167 166 160 159 153 147 134 134 120 98 86 83 82 80 76 68 51 31 25 28 35 27 22
251 214 207 234 231 220 201 216 196 179 186 181 182 183 178 172 171 169 169 170 167 166 165 167 169 165 161 159 155 148 152 144 132 128 117 105 96 95 101 84 75 71 62 48 37 34 31 32 39
192 205 223 235 267 273 223 170 138 185 184 184 184 181 176 173 172 170 168 167 164 161 163 167 168 166 162 160 155 153 148 141 137 119 108 110 104 109 100 82 72 65 51 49 55 42 41 31 32
230 226 218 233 222 255 276 125 104 185 185 185 181 175 173 172 170 168 165 163 163 165 166 168 167 165 163 161 158 150 143 144 136 119 115 115 107 101 95 87 76 67 54 46 45 43 36 35 30